OKDPH LKSZ-LKSZ

Flight info

Callsign OKDPH
Flight time 1h 19m
Altitude 5500
Route OMELO EDDCT EDDC EDDCM EDDCC EDDCT/N0100F075 LALUK
Aircraft BR23/L-SDE3/L

Departure

Time 2026-04-21 18:30
Airport Sazená Airfield (LKSZ)

Arrival

Time 2026-04-21 19:49
Airport Sazená Airfield (LKSZ)
Time Latitude Longitude Altitude Speed Heading
2026-04-21 18:21 50.31797 14.26236 770 ft 0 kts 11°
2026-04-21 18:25 50.31801 14.26237 768 ft 4 kts
2026-04-21 18:25 50.31848 14.26295 769 ft 10 kts 45°
2026-04-21 18:25 50.31873 14.26346 769 ft 0 kts 63°
2026-04-21 18:27 50.31876 14.26365 769 ft 4 kts 76°
2026-04-21 18:28 50.31880 14.26383 770 ft 2 kts 60°
2026-04-21 18:28 50.31899 14.26406 771 ft 4 kts 12°
2026-04-21 18:28 50.31911 14.26402 771 ft 0 kts 331°
2026-04-21 18:28 50.32060 14.26269 768 ft 53 kts 330°
2026-04-21 18:29 50.32443 14.25861 819 ft 77 kts 329°
2026-04-21 18:29 50.32837 14.25384 962 ft 75 kts 324°
2026-04-21 18:29 50.33205 14.24806 1139 ft 68 kts 316°
2026-04-21 18:29 50.33618 14.24371 1286 ft 74 kts
2026-04-21 18:30 50.34150 14.24508 1364 ft 82 kts
2026-04-21 18:30 50.34711 14.24330 1529 ft 81 kts 352°
2026-04-21 18:30 50.35251 14.24102 1736 ft 81 kts 346°
2026-04-21 18:30 50.35800 14.23849 1933 ft 84 kts 348°
2026-04-21 18:31 50.36370 14.23576 2133 ft 88 kts 349°
2026-04-21 18:31 50.36955 14.23290 2297 ft 85 kts 349°
2026-04-21 18:31 50.37491 14.23069 2463 ft 77 kts 349°
2026-04-21 18:31 50.37984 14.22800 2734 ft 69 kts 348°
2026-04-21 18:32 50.38475 14.22545 2992 ft 78 kts 347°
2026-04-21 18:32 50.39024 14.22285 3014 ft 88 kts 349°
2026-04-21 18:32 50.39658 14.21974 2907 ft 104 kts 348°
2026-04-21 18:32 50.40329 14.21650 2979 ft 98 kts 349°
2026-04-21 18:33 50.40977 14.21333 3006 ft 96 kts 348°
2026-04-21 18:33 50.41611 14.21021 3007 ft 97 kts 348°
2026-04-21 18:33 50.42277 14.20687 3007 ft 103 kts 348°
2026-04-21 18:33 50.42962 14.20367 3016 ft 103 kts 348°
2026-04-21 18:34 50.43626 14.20062 2987 ft 97 kts 349°
2026-04-21 18:34 50.44220 14.19762 3006 ft 88 kts 348°
2026-04-21 18:34 50.44825 14.19469 3042 ft 88 kts 349°
2026-04-21 18:34 50.45397 14.19186 3264 ft 84 kts 348°
2026-04-21 18:35 50.45770 14.18993 3337 ft 84 kts 348°
2026-04-21 18:35 50.46506 14.18630 3506 ft 84 kts 348°
2026-04-21 18:35 50.47059 14.18335 3786 ft 84 kts 348°
2026-04-21 18:35 50.47613 14.18053 3976 ft 84 kts 349°
2026-04-21 18:36 50.48173 14.17764 4250 ft 84 kts 348°
2026-04-21 18:36 50.48541 14.17569 4439 ft 85 kts 347°
2026-04-21 18:36 50.49100 14.17265 4630 ft 85 kts 348°
2026-04-21 18:36 50.49662 14.16963 4909 ft 86 kts 348°
2026-04-21 18:37 50.50225 14.16659 5150 ft 85 kts 348°
2026-04-21 18:37 50.50788 14.16353 5283 ft 85 kts 348°
2026-04-21 18:37 50.51350 14.16043 5413 ft 86 kts 348°
2026-04-21 18:37 50.51918 14.15748 5595 ft 86 kts 348°
2026-04-21 18:38 50.52485 14.15448 5760 ft 86 kts 348°
2026-04-21 18:38 50.53056 14.15148 5977 ft 87 kts 348°
2026-04-21 18:38 50.53630 14.14855 6137 ft 87 kts 348°
2026-04-21 18:38 50.54205 14.14559 6314 ft 87 kts 347°
2026-04-21 18:39 50.54787 14.14261 6571 ft 88 kts 348°
2026-04-21 18:39 50.55375 14.13950 6732 ft 95 kts 348°
2026-04-21 18:39 50.56035 14.13641 6736 ft 100 kts 348°
2026-04-21 18:39 50.56692 14.13328 6739 ft 98 kts 349°
2026-04-21 18:40 50.57344 14.13014 6740 ft 97 kts 348°
2026-04-21 18:40 50.57992 14.12703 6721 ft 99 kts 348°
2026-04-21 18:40 50.58650 14.12383 6734 ft 99 kts 348°
2026-04-21 18:40 50.59308 14.12060 6748 ft 101 kts 348°
2026-04-21 18:41 50.59988 14.11733 6737 ft 102 kts 348°
2026-04-21 18:41 50.60665 14.11411 6735 ft 101 kts 348°
2026-04-21 18:41 50.61325 14.11081 6734 ft 99 kts 348°
2026-04-21 18:41 50.61979 14.10758 6731 ft 98 kts 348°
2026-04-21 18:42 50.62623 14.10442 6737 ft 97 kts 348°
2026-04-21 18:42 50.63266 14.10124 6737 ft 97 kts 348°
2026-04-21 18:42 50.63917 14.09800 6738 ft 99 kts 348°
2026-04-21 18:42 50.64578 14.09470 6733 ft 100 kts 348°
2026-04-21 18:43 50.65241 14.09141 6739 ft 99 kts 348°
2026-04-21 18:43 50.65903 14.08812 6738 ft 101 kts 348°
2026-04-21 18:43 50.66573 14.08484 6736 ft 101 kts 348°
2026-04-21 18:43 50.67240 14.08155 6740 ft 100 kts 348°
2026-04-21 18:44 50.67891 14.07824 6742 ft 99 kts 348°
2026-04-21 18:44 50.68558 14.07493 6753 ft 101 kts 348°
2026-04-21 18:44 50.69229 14.07177 6726 ft 101 kts 348°
2026-04-21 18:44 50.69899 14.06853 6729 ft 100 kts 348°
2026-04-21 18:45 50.70558 14.06533 6732 ft 98 kts 348°
2026-04-21 18:45 50.71206 14.06215 6716 ft 97 kts 348°
2026-04-21 18:45 50.71842 14.05902 6739 ft 97 kts 348°
2026-04-21 18:45 50.72515 14.05582 6739 ft 102 kts 349°
2026-04-21 18:46 50.73182 14.05256 6726 ft 99 kts 348°
2026-04-21 18:46 50.73833 14.04926 6733 ft 98 kts 348°
2026-04-21 18:46 50.74467 14.04604 6727 ft 96 kts 348°
2026-04-21 18:46 50.75099 14.04278 6726 ft 95 kts 348°
2026-04-21 18:47 50.75731 14.03953 6741 ft 96 kts 347°
2026-04-21 18:47 50.76394 14.03625 6747 ft 105 kts 348°
2026-04-21 18:47 50.77090 14.03286 6742 ft 101 kts 348°
2026-04-21 18:47 50.77745 14.02960 6742 ft 98 kts 348°
2026-04-21 18:48 50.78421 14.02625 6737 ft 102 kts 347°
2026-04-21 18:48 50.79112 14.02299 6739 ft 102 kts 348°
2026-04-21 18:48 50.79779 14.01973 6741 ft 99 kts 348°
2026-04-21 18:48 50.80430 14.01646 6733 ft 98 kts 348°
2026-04-21 18:49 50.81089 14.01371 6725 ft 95 kts
2026-04-21 18:49 50.81687 14.01702 6735 ft 91 kts 17°
2026-04-21 18:49 50.82022 14.02059 6732 ft 91 kts 57°
2026-04-21 18:49 50.81670 14.03206 6732 ft 111 kts 159°
2026-04-21 18:50 50.80893 14.03117 6733 ft 115 kts 184°
2026-04-21 18:50 50.80101 14.02960 6735 ft 115 kts 186°
2026-04-21 18:50 50.79509 14.02198 6724 ft 114 kts 256°
2026-04-21 18:50 50.79703 14.01143 6734 ft 99 kts 330°
2026-04-21 18:51 50.80290 14.00627 6724 ft 95 kts 352°
2026-04-21 18:51 50.80936 14.00451 6741 ft 94 kts 354°
2026-04-21 18:51 50.81581 14.00262 6745 ft 94 kts 355°
2026-04-21 18:51 50.82231 14.00070 6747 ft 95 kts 354°
2026-04-21 18:52 50.82869 14.00026 6746 ft 91 kts 26°
2026-04-21 18:52 50.83106 14.00887 6709 ft 100 kts 99°
2026-04-21 18:52 50.82535 14.01622 6588 ft 121 kts 168°
2026-04-21 18:52 50.81767 14.01118 6459 ft 126 kts 234°
2026-04-21 18:53 50.81656 13.99844 6324 ft 117 kts 300°
2026-04-21 18:53 50.82215 13.99043 6224 ft 108 kts 333°
2026-04-21 18:53 50.82860 13.98440 6114 ft 106 kts 340°
2026-04-21 18:53 50.83519 13.97938 6011 ft 108 kts 339°
2026-04-21 18:54 50.84195 13.97418 5903 ft 108 kts 340°
2026-04-21 18:54 50.84868 13.96897 5788 ft 107 kts 340°
2026-04-21 18:54 50.85512 13.96397 5665 ft 99 kts 342°
2026-04-21 18:54 50.86130 13.95973 5534 ft 96 kts 343°
2026-04-21 18:55 50.86544 13.95690 5442 ft 96 kts 343°
2026-04-21 18:55 50.87378 13.95163 5269 ft 97 kts 354°
2026-04-21 18:55 50.88036 13.95101 5127 ft 94 kts
2026-04-21 18:55 50.88688 13.95053 4999 ft 93 kts
2026-04-21 18:56 50.89334 13.95007 4858 ft 93 kts
2026-04-21 18:56 50.89985 13.94963 4732 ft 94 kts
2026-04-21 18:56 50.90634 13.94916 4598 ft 93 kts
2026-04-21 18:56 50.91281 13.94873 4470 ft 93 kts
2026-04-21 18:57 50.91928 13.94831 4334 ft 93 kts
2026-04-21 18:57 50.92578 13.94790 4216 ft 96 kts
2026-04-21 18:57 50.93245 13.94756 4081 ft 94 kts
2026-04-21 18:57 50.93901 13.94721 3956 ft 95 kts
2026-04-21 18:58 50.94553 13.94692 3838 ft 93 kts
2026-04-21 18:58 50.95196 13.94659 3712 ft 92 kts
2026-04-21 18:58 50.95825 13.94623 3581 ft 92 kts
2026-04-21 18:58 50.96468 13.94586 3456 ft 93 kts
2026-04-21 18:59 50.97102 13.94552 3401 ft 86 kts
2026-04-21 18:59 50.97682 13.94519 3391 ft 82 kts
2026-04-21 18:59 50.98229 13.94241 3391 ft 84 kts 336°
2026-04-21 18:59 50.98763 13.93770 3305 ft 91 kts 338°
2026-04-21 19:00 50.99333 13.93290 3201 ft 93 kts 338°
2026-04-21 19:00 50.99907 13.92806 3099 ft 93 kts 338°
2026-04-21 19:00 51.00483 13.92323 3009 ft 93 kts 338°
2026-04-21 19:00 51.01033 13.91862 2992 ft 86 kts 338°
2026-04-21 19:01 51.01554 13.91418 2991 ft 84 kts 338°
2026-04-21 19:01 51.02065 13.90977 2998 ft 84 kts 338°
2026-04-21 19:01 51.02509 13.90367 2997 ft 88 kts 310°
2026-04-21 19:01 51.02794 13.89493 3000 ft 91 kts 295°
2026-04-21 19:02 51.02991 13.88530 2997 ft 92 kts 296°
2026-04-21 19:02 51.03202 13.87555 2998 ft 94 kts 296°
2026-04-21 19:02 51.03422 13.86542 2896 ft 103 kts 295°
2026-04-21 19:02 51.03682 13.85394 2554 ft 116 kts 296°
2026-04-21 19:03 51.03965 13.84169 2209 ft 120 kts 296°
2026-04-21 19:03 51.04239 13.82982 2020 ft 109 kts 295°
2026-04-21 19:03 51.04486 13.81885 2011 ft 100 kts 295°
2026-04-21 19:03 51.04720 13.80845 2012 ft 100 kts 295°
2026-04-21 19:04 51.04956 13.79806 2001 ft 99 kts 296°
2026-04-21 19:04 51.05188 13.78783 1998 ft 98 kts 296°
2026-04-21 19:04 51.05399 13.77821 1985 ft 86 kts 296°
2026-04-21 19:04 51.05615 13.76970 1941 ft 82 kts 313°
2026-04-21 19:05 51.05992 13.76356 1963 ft 75 kts 329°
2026-04-21 19:05 51.06422 13.75922 1998 ft 73 kts 336°
2026-04-21 19:05 51.06884 13.75606 2022 ft 72 kts 353°
2026-04-21 19:05 51.07369 13.75492 1969 ft 70 kts 356°
2026-04-21 19:06 51.07856 13.75388 1919 ft 73 kts 356°
2026-04-21 19:06 51.08360 13.75191 1873 ft 75 kts 342°
2026-04-21 19:06 51.08779 13.74764 1761 ft 72 kts 328°
2026-04-21 19:06 51.09143 13.74208 1631 ft 74 kts 316°
2026-04-21 19:07 51.09466 13.73613 1578 ft 71 kts 315°
2026-04-21 19:07 51.09847 13.73170 1616 ft 66 kts 343°
2026-04-21 19:07 51.10314 13.73076 1549 ft 72 kts 10°
2026-04-21 19:07 51.10800 13.73371 1441 ft 80 kts 27°
2026-04-21 19:08 51.11301 13.73877 1241 ft 89 kts 37°
2026-04-21 19:08 51.11779 13.74508 1034 ft 91 kts 39°
2026-04-21 19:08 51.12260 13.75175 842 ft 91 kts 40°
2026-04-21 19:08 51.12710 13.75811 716 ft 75 kts 39°
2026-04-21 19:09 51.13053 13.76270 706 ft 67 kts 40°
2026-04-21 19:09 51.13449 13.76849 845 ft 79 kts 41°
2026-04-21 19:09 51.13826 13.77433 1112 ft 74 kts 31°
2026-04-21 19:09 51.14326 13.77569 1301 ft 79 kts 346°
2026-04-21 19:10 51.14760 13.77030 1494 ft 84 kts 306°
2026-04-21 19:10 51.15033 13.76274 1800 ft 77 kts 304°
2026-04-21 19:10 51.15298 13.75517 1994 ft 84 kts 308°
2026-04-21 19:10 51.15631 13.74669 2092 ft 94 kts 310°
2026-04-21 19:11 51.15995 13.73795 2194 ft 102 kts 310°
2026-04-21 19:11 51.16418 13.72802 2123 ft 111 kts 310°
2026-04-21 19:11 51.16853 13.71795 2053 ft 108 kts 310°
2026-04-21 19:11 51.17266 13.70811 1971 ft 106 kts 309°
2026-04-21 19:12 51.17523 13.70129 1935 ft 113 kts 296°
2026-04-21 19:12 51.17177 13.68582 1810 ft 119 kts 231°
2026-04-21 19:12 51.16679 13.67574 1808 ft 115 kts 235°
2026-04-21 19:12 51.16188 13.66566 1806 ft 113 kts 234°
2026-04-21 19:13 51.15707 13.65566 1806 ft 115 kts 236°
2026-04-21 19:13 51.15210 13.64554 1808 ft 115 kts 234°
2026-04-21 19:13 51.14738 13.63584 1799 ft 108 kts 234°
2026-04-21 19:13 51.14288 13.62662 1788 ft 106 kts 234°
2026-04-21 19:14 51.13836 13.61752 1789 ft 104 kts 234°
2026-04-21 19:14 51.13394 13.60853 1784 ft 101 kts 234°
2026-04-21 19:14 51.12968 13.59981 1787 ft 99 kts 235°
2026-04-21 19:14 51.12536 13.59104 1792 ft 103 kts 235°
2026-04-21 19:15 51.12084 13.58191 1789 ft 106 kts 234°
2026-04-21 19:15 51.11649 13.57297 1789 ft 99 kts 234°
2026-04-21 19:15 51.11226 13.56433 1785 ft 102 kts 235°
2026-04-21 19:15 51.10789 13.55525 1776 ft 107 kts 235°
2026-04-21 19:16 51.10280 13.54721 1770 ft 103 kts 202°
2026-04-21 19:16 51.09607 13.54504 1793 ft 102 kts 168°
2026-04-21 19:16 51.08977 13.54973 1790 ft 96 kts 134°
2026-04-21 19:16 51.08604 13.55822 1805 ft 95 kts 105°
2026-04-21 19:17 51.08329 13.57789 1800 ft 93 kts 95°
2026-04-21 19:17 51.08193 13.58798 1803 ft 94 kts 96°
2026-04-21 19:17 51.08062 13.59825 1812 ft 95 kts 96°
2026-04-21 19:18 51.07926 13.60869 1804 ft 97 kts 96°
2026-04-21 19:18 51.07793 13.61926 1808 ft 100 kts 96°
2026-04-21 19:18 51.07655 13.63009 1813 ft 99 kts 96°
2026-04-21 19:18 51.07517 13.64088 1813 ft 100 kts 96°
2026-04-21 19:19 51.07382 13.65177 1805 ft 100 kts 95°
2026-04-21 19:19 51.07210 13.66253 1802 ft 101 kts 101°
2026-04-21 19:19 51.07013 13.67314 1814 ft 100 kts 101°
2026-04-21 19:19 51.06818 13.68357 1800 ft 97 kts 101°
2026-04-21 19:20 51.06620 13.69392 1805 ft 99 kts 101°
2026-04-21 19:20 51.06420 13.70449 1812 ft 101 kts 101°
2026-04-21 19:20 51.06216 13.71527 1809 ft 102 kts 101°
2026-04-21 19:20 51.06015 13.72610 1804 ft 102 kts 101°
2026-04-21 19:21 51.05815 13.73696 1816 ft 102 kts 101°
2026-04-21 19:21 51.05616 13.74779 1809 ft 102 kts 101°
2026-04-21 19:21 51.05412 13.75860 1813 ft 103 kts 101°
2026-04-21 19:21 51.05209 13.76932 1804 ft 103 kts 101°
2026-04-21 19:22 51.05004 13.78028 1806 ft 103 kts 101°
2026-04-21 19:22 51.04807 13.79092 1812 ft 104 kts 101°
2026-04-21 19:22 51.04603 13.80201 1810 ft 104 kts 101°
2026-04-21 19:22 51.04332 13.81270 1804 ft 108 kts 124°
2026-04-21 19:23 51.03798 13.82115 1809 ft 109 kts 128°
2026-04-21 19:23 51.03202 13.82871 1808 ft 112 kts 145°
2026-04-21 19:23 51.02532 13.83497 1808 ft 113 kts 144°
2026-04-21 19:23 51.01840 13.84099 1803 ft 114 kts 156°
2026-04-21 19:24 51.01072 13.84411 1804 ft 114 kts 164°
2026-04-21 19:24 51.00324 13.84713 1794 ft 108 kts 164°
2026-04-21 19:24 50.99832 13.84893 1800 ft 112 kts 165°
2026-04-21 19:24 50.99062 13.85191 1802 ft 116 kts 163°
2026-04-21 19:25 50.98280 13.85494 1803 ft 116 kts 163°
2026-04-21 19:25 50.97490 13.85808 1801 ft 117 kts 164°
2026-04-21 19:25 50.96699 13.86119 1808 ft 117 kts 164°
2026-04-21 19:25 50.95910 13.86434 1806 ft 115 kts 164°
2026-04-21 19:26 50.95129 13.86746 1804 ft 115 kts 163°
2026-04-21 19:26 50.94350 13.87068 1800 ft 117 kts 164°
2026-04-21 19:26 50.93557 13.87397 1809 ft 120 kts 164°
2026-04-21 19:26 50.92751 13.87745 1805 ft 119 kts 164°
2026-04-21 19:27 50.91965 13.88095 1805 ft 115 kts 162°
2026-04-21 19:27 50.91195 13.88419 1808 ft 116 kts 164°
2026-04-21 19:27 50.90404 13.88748 1808 ft 117 kts 164°
2026-04-21 19:27 50.89610 13.89082 1805 ft 117 kts 163°
2026-04-21 19:28 50.88822 13.89416 1804 ft 117 kts 164°
2026-04-21 19:28 50.88037 13.89750 1795 ft 117 kts 163°
2026-04-21 19:28 50.87268 13.90068 1789 ft 114 kts 173°
2026-04-21 19:28 50.86480 13.90023 1798 ft 112 kts 182°
2026-04-21 19:29 50.85756 13.89984 2108 ft 96 kts 180°
2026-04-21 19:29 50.85108 13.89926 2439 ft 94 kts 181°
2026-04-21 19:29 50.84394 13.89838 2576 ft 108 kts 181°
2026-04-21 19:29 50.83703 13.89647 2964 ft 101 kts 192°
2026-04-21 19:30 50.82972 13.89395 2981 ft 113 kts 189°
2026-04-21 19:30 50.82189 13.89133 2988 ft 116 kts 189°
2026-04-21 19:30 50.81403 13.88870 2992 ft 116 kts 190°
2026-04-21 19:30 50.80616 13.88646 2990 ft 115 kts 176°
2026-04-21 19:31 50.79901 13.89079 2995 ft 110 kts 146°
2026-04-21 19:31 50.79238 13.89751 2987 ft 113 kts 139°
2026-04-21 19:31 50.78610 13.90432 2990 ft 110 kts 140°
2026-04-21 19:31 50.77957 13.91077 2994 ft 109 kts 145°
2026-04-21 19:32 50.77300 13.91663 2993 ft 109 kts 144°
2026-04-21 19:32 50.76627 13.92265 2995 ft 112 kts 145°
2026-04-21 19:32 50.75947 13.92858 3006 ft 112 kts 144°
2026-04-21 19:32 50.75237 13.93488 2994 ft 120 kts 145°
2026-04-21 19:33 50.74531 13.94128 2980 ft 113 kts 144°
2026-04-21 19:33 50.73872 13.94715 2978 ft 105 kts 145°
2026-04-21 19:33 50.73244 13.95273 3005 ft 106 kts 144°
2026-04-21 19:33 50.72581 13.95860 2984 ft 111 kts 144°
2026-04-21 19:34 50.71899 13.96436 2987 ft 111 kts 145°
2026-04-21 19:34 50.71213 13.97015 3044 ft 114 kts 145°
2026-04-21 19:34 50.70473 13.97652 2999 ft 126 kts 145°
2026-04-21 19:34 50.69718 13.98319 2998 ft 125 kts 144°
2026-04-21 19:35 50.68984 13.98963 3039 ft 118 kts 145°
2026-04-21 19:35 50.67481 14.00274 2975 ft 119 kts 144°
2026-04-21 19:35 50.66773 14.00875 2976 ft 113 kts 144°
2026-04-21 19:36 50.66074 14.01469 2971 ft 115 kts 144°
2026-04-21 19:36 50.65364 14.02072 3006 ft 124 kts 146°
2026-04-21 19:36 50.64611 14.02706 2974 ft 118 kts 144°
2026-04-21 19:36 50.63893 14.03341 2973 ft 116 kts 144°
2026-04-21 19:37 50.63145 14.03835 2975 ft 120 kts 155°
2026-04-21 19:37 50.62369 14.04267 2982 ft 120 kts 155°
2026-04-21 19:37 50.61579 14.04699 2983 ft 118 kts 155°
2026-04-21 19:37 50.60818 14.05115 2975 ft 117 kts 155°
2026-04-21 19:38 50.60064 14.05523 2971 ft 113 kts 155°
2026-04-21 19:38 50.59331 14.05908 2976 ft 112 kts 155°
2026-04-21 19:38 50.58571 14.06329 2992 ft 120 kts 154°
2026-04-21 19:38 50.57784 14.06755 3005 ft 120 kts 155°
2026-04-21 19:39 50.57016 14.07171 2991 ft 114 kts 154°
2026-04-21 19:39 50.56268 14.07566 2993 ft 113 kts 155°
2026-04-21 19:39 50.55467 14.07986 2933 ft 129 kts 156°
2026-04-21 19:39 50.54647 14.08427 2994 ft 119 kts 155°
2026-04-21 19:40 50.53882 14.08842 3007 ft 116 kts 156°
2026-04-21 19:40 50.53111 14.09249 2999 ft 115 kts 154°
2026-04-21 19:40 50.52327 14.09676 2973 ft 121 kts 154°
2026-04-21 19:40 50.51551 14.10092 3027 ft 120 kts 156°
2026-04-21 19:41 50.50724 14.10538 2980 ft 123 kts 153°
2026-04-21 19:41 50.49936 14.10975 3012 ft 120 kts 155°
2026-04-21 19:41 50.49164 14.11391 3005 ft 115 kts 154°
2026-04-21 19:41 50.48389 14.11809 2982 ft 117 kts 156°
2026-04-21 19:42 50.47596 14.12228 3002 ft 120 kts 155°
2026-04-21 19:42 50.46814 14.12644 3014 ft 120 kts 155°
2026-04-21 19:42 50.46025 14.13062 2989 ft 117 kts 155°
2026-04-21 19:42 50.45243 14.13486 3003 ft 119 kts 154°
2026-04-21 19:43 50.44456 14.13905 3010 ft 124 kts 155°
2026-04-21 19:43 50.43628 14.14346 3015 ft 129 kts 155°
2026-04-21 19:43 50.42792 14.14803 2993 ft 121 kts 154°
2026-04-21 19:43 50.42013 14.15217 3009 ft 117 kts 156°
2026-04-21 19:44 50.41249 14.15635 3023 ft 122 kts 154°
2026-04-21 19:44 50.40415 14.16091 2998 ft 128 kts 155°
2026-04-21 19:44 50.39586 14.16540 3008 ft 124 kts 154°
2026-04-21 19:44 50.38850 14.17166 3023 ft 117 kts 139°
2026-04-21 19:45 50.38186 14.17943 3004 ft 118 kts 125°
2026-04-21 19:45 50.37642 14.18973 2770 ft 127 kts 123°
2026-04-21 19:45 50.37088 14.20029 2443 ft 124 kts 124°
2026-04-21 19:45 50.36551 14.21062 2132 ft 121 kts 122°
2026-04-21 19:46 50.36029 14.22085 1803 ft 119 kts 123°
2026-04-21 19:46 50.35551 14.23037 1746 ft 107 kts 122°
2026-04-21 19:46 50.35071 14.23903 1675 ft 105 kts 131°
2026-04-21 19:46 50.34572 14.24694 1624 ft 101 kts 131°
2026-04-21 19:47 50.34084 14.25418 1763 ft 95 kts 133°
2026-04-21 19:47 50.33571 14.26055 1751 ft 90 kts 137°
2026-04-21 19:47 50.33101 14.26596 1673 ft 77 kts 140°
2026-04-21 19:47 50.32671 14.27123 1516 ft 80 kts 137°
2026-04-21 19:48 50.32255 14.27688 1418 ft 79 kts 134°
2026-04-21 19:48 50.31814 14.28174 1271 ft 76 kts 172°
2026-04-21 19:48 50.31418 14.27752 1081 ft 72 kts 246°
2026-04-21 19:48 50.31436 14.27072 923 ft 61 kts 303°
2026-04-21 19:49 50.31718 14.26613 842 ft 59 kts 326°
2026-04-21 19:49 50.32054 14.26261 777 ft 53 kts 328°
2026-04-21 19:49 50.32273 14.26039 772 ft 18 kts 323°
2026-04-21 19:49 50.32245 14.25975 772 ft 11 kts 165°
2026-04-21 19:50 50.32196 14.26021 770 ft 13 kts 140°
2026-04-21 19:50 50.32100 14.26146 770 ft 15 kts 141°
2026-04-21 19:50 50.32019 14.26220 768 ft 11 kts 180°
2026-04-21 19:50 50.31969 14.26206 769 ft 6 kts 203°
2026-04-21 19:51 50.31936 14.26191 769 ft 4 kts 190°
2026-04-21 19:51 50.31925 14.26203 769 ft 1 kts 98°
2026-04-21 19:51 50.31925 14.26206 769 ft 0 kts 103°